Regional Weather Roundup
Issued by NWS

Home | Current Version | Previous Version | Graphics & Text | Print | Product List | Glossary On
Versions: 1 2 3 4 5 6 7 8 9 10 11 12 13 14 15 16 17 18 19 20 21 22 23 24 25 26 27 28 29 30 31 32 33 34 35 36 37 38 39 40 41 42 43 44 45 46 47 48 49 50
000
ASUS43 KLMK 062202
RWRKY
KENTUCKY REGIONAL WEATHER ROUNDUP
NATIONAL WEATHER SERVICE LOUISVILLE KY
600 PM EDT MON JUL 06 2015

NOTE "FAIR" INDICATES FEW OR NO CLOUDS BELOW 12,000 FEET
WITH NO SIGNIFICANT WEATHER AND/OR OBSTRUCTIONS TO VISIBILITY.

KYZ001>023-026-027-061>063-070>075-062300-
WESTERN AND SOUTH CENTRAL KENTUCKY

CITY           SKY/WX    TMP DP  RH WIND       PRES   REMARKS
PADUCAH        PTSUNNY   85  75  72 SW8       29.99F HX  93
HENDERSON      PTSUNNY   82  73  74 S7        29.98F
OWENSBORO      MOSUNNY   87  74  65 SW12      30.01F HX  95
HOPKINSVILLE   NOT AVBL
BOWLING GREEN  MOSUNNY   86  69  56 S12G20    30.05S HX  90
GLASGOW        NOT AVBL
$$

KYZ024-025-028>034-038-045-046-053-062300-
NORTH CENTRAL KENTUCKY

CITY           SKY/WX    TMP DP  RH WIND       PRES   REMARKS
LOUISVILLE/SDF PTSUNNY   86  68  54 SW14      30.01F
LOUISVILLE/LOU MOSUNNY   85  68  56 SW9G17    30.02F
FORT KNOX      NOT AVBL
$$

KYZ035>037-039>044-047>052-055>060-089>105-062300-
NORTHEAST KENTUCKY

CITY           SKY/WX    TMP DP  RH WIND       PRES   REMARKS
LEXINGTON      SUNNY     83  66  56 SW9       30.05F
COVINGTON      MOSUNNY   83  67  58 SW9       30.02F HAZE
FRANKFORT      SUNNY     84  66  54 SW10      30.03F
$$

KYZ054-064>069-076>088-106>120-062300-
SOUTHEAST KENTUCKY

CITY           SKY/WX    TMP DP  RH WIND       PRES   REMARKS
JACKSON        PTSUNNY   80  68  66 CALM      30.10F
LONDON         SUNNY     84  62  47 W9        30.10F
SOMERSET       NOT AVBL
MIDDLESBORO    NOT AVBL
MONTICELLO     CLEAR     85  70  60 SW5       30.11F
$$



USA.gov is the U.S. government's official web portal to all federal, state and local government web resources and services.